Location: Hampton-Harmon Observatory
(35.9871°N, 80.3709°W)
Time: 11:14:25
(UTC-04:00)

N. Korean satellite - Visible Passes

Search period start: 24 September 2018 00:00
Search period end: 04 October 2018 00:00
Orbit: 458 x 511 km, 97.2° (Epoch: 23 September)

Date Brightness Start Highest point End Pass type
(mag) Time Alt. Az. Time Alt. Az. Time Alt. Az.
25 Sep 10.2 06:46:45 10° ENE 06:48:54 15° E 06:51:04 10° SE visible
26 Sep 10.1 20:02:45 10° WSW 20:04:30 13° W 20:06:15 10° WNW visible
27 Sep 9.1 19:36:57 10° SSW 19:39:59 27° W 19:43:06 10° NW visible
29 Sep 10.3 06:43:05 10° ENE 06:44:56 13° E 06:46:46 10° ESE visible
30 Sep 9.9 19:58:22 10° SW 20:00:27 15° W 20:02:35 10° WNW visible
01 Oct 8.8 19:32:47 10° SSW 19:35:58 31° W 19:39:13 10° NNW visible
03 Oct 10.5 06:39:29 10° ENE 06:40:53 12° E 06:42:17 10° ESE visible
